Flag for Honduras Weather past 2 weeks in La Ceiba, Honduras

Now
88 °F

Broken clouds.


Feels Like: 100 °F
Forecast: N/A
Wind: 6 mph from North

Location: La Ceiba Airport

Current Time: Oct 20, 2014 at 4:01:42 PM

Latest Report: Oct 20, 2014 at 3:00 PM


Visibility: N/A

Pressure: 29.71 "Hg

Humidity: 70%

Dew point: 77 °F

Location of La CeibaLocation

Historic Weather in La Ceiba — Graph

°F

La Ceiba temperature yesterday

Maximum temperature yesterday: 84 °F (at 11:00 AM)
Minimum temperature yesterday: 73 °F (at 5:00 AM)
Average temperature yesterday: 78 °F

Past Weeks' High & Low Weather Summary

 TemperatureHumidityPressure
High88 °F (Oct 5, 2:00 PM)100% (Oct 7, 3:00 AM)29.95 "Hg (Oct 7, 3:00 AM)
Low68 °F (Oct 6, 5:00 AM)66% (Oct 6, 12:00 PM)29.74 "Hg (Oct 20, 2:00 PM)
Average79 °F84%29.86 "Hg
* Reported Oct 5 2:00 PM — Oct 20 2:00 PM, La Ceiba, Weather by CustomWeather, © 2014

Note: Actual official high and low records may vary slightly from our data, if they occured in-between our weather recording intervals... More about our weather records

Advertising

La Ceiba weather history for previous 24 hours

 ConditionsComfort  
Time TempWeatherWind HumidityBarometerVisibility
2:00 PM
Oct 20
86 °FBroken clouds.6 mph75%29.74 "HgN/A
1:00 PM84 °FBroken clouds.6 mph79%29.77 "HgN/A
12:00 PM86 °FBroken clouds.6 mph75%29.80 "HgN/A
11:00 AM86 °FBroken clouds.7 mph75%29.83 "HgN/A
10:00 AM88 °FBroken clouds.2 mph70%29.83 "HgN/A
9:00 AM84 °FPartly sunny.No wind79%29.86 "HgN/A
8:00 AM81 °FPartly sunny.No wind84%29.86 "HgN/A
7:00 AM79 °FPartly sunny.No wind89%29.86 "HgN/A
5:00 AM73 °FMostly cloudy.3 mph94%29.83 "HgN/A
4:00 AM73 °FMostly cloudy.3 mph100%29.83 "HgN/A
3:00 AM73 °FPartly cloudy.3 mph94%29.83 "HgN/A
2:00 AM75 °FMostly cloudy.No wind94%29.83 "HgN/A
12:00 AM75 °FMostly cloudy.No wind94%29.86 "HgN/A
11:00 PM
Oct 19
75 °FPartly cloudy.2 mph94%29.89 "HgN/A
9:00 PM75 °FLight rain. Mostly cloudy.3 mph94%29.89 "Hg4 mi
8:00 PM75 °FMostly cloudy.2 mph94%29.86 "HgN/A
7:00 PM75 °FLight rain. Partly cloudy.2 mph83%29.83 "Hg3 mi
6:00 PM77 °FSleet. Partly cloudy.5 mph79%29.83 "HgN/A
5:00 PM82 °FSleet. Broken clouds.No wind74%29.80 "HgN/A
4:00 PM82 °FBroken clouds.No wind70%29.80 "HgN/A
Weather by CustomWeather, © 2014

See weather overviewHow to use our weather pages